| time (UTC) | temp F | wind direction | speed MPH | gust MPH | rain 1hr in | rain 24hr in | rain mn in | humidity % | barometer mb |
| 20260505070050 | 64 | 207 | 6.0 | 12.0 | 0.00 | 0.00 | 0.00 | 67 | 1013.6 |
| 20260505064545 | 64 | 221 | 6.0 | 12.0 | 0.00 | 0.00 | 0.00 | 68 | 1013.6 |
| 20260505063105 | 64 | 236 | 7.0 | 12.0 | 0.00 | 0.00 | 0.00 | 68 | 1013.7 |
| 20260505061613 | 65 | 236 | 6.0 | 14.0 | 0.00 | 0.00 | 0.00 | 67 | 1013.8 |
| 20260505054554 | 65 | 200 | 9.0 | 13.0 | 0.00 | 0.00 | 0.00 | 67 | 1013.7 |
| 20260505053046 | 65 | 212 | 9.0 | 15.0 | 0.00 | 0.00 | 0.00 | 66 | 1013.8 |
| 20260505051605 | 65 | 226 | 6.0 | 14.0 | 0.00 | 0.00 | 0.00 | 66 | 1013.8 |
| 20260505041550 | 67 | 192 | 10.0 | 19.0 | 0.00 | 0.00 | 0.00 | 66 | 1013.8 |
| 20260505040046 | 67 | 216 | 9.0 | 16.0 | 0.00 | 0.00 | 0.00 | 66 | 1013.8 |
| 20260505034541 | 67 | 214 | 9.0 | 18.0 | 0.00 | 0.00 | 0.00 | 66 | 1013.7 |
| 20260505033042 | 67 | 175 | 11.0 | 18.0 | 0.00 | 0.00 | 0.00 | 66 | 1013.8 |
| 20260505031553 | 67 | 202 | 9.0 | 18.0 | 0.00 | 0.00 | 0.00 | 67 | 1013.7 |
| 20260505030049 | 67 | 182 | 7.0 | 14.0 | 0.00 | 0.00 | 0.00 | 68 | 1013.6 |
| 20260505024551 | 68 | 165 | 10.0 | 15.0 | 0.00 | 0.00 | 0.00 | 68 | 1013.6 |
| 20260505023051 | 68 | 146 | 9.0 | 14.0 | 0.00 | 0.00 | 0.00 | 65 | 1013.4 |
| 20260505021550 | 68 | 155 | 8.0 | 12.0 | 0.00 | 0.00 | 0.00 | 60 | 1013.1 |
| 20260505014554 | 68 | 149 | 3.0 | 4.0 | 0.00 | 0.00 | 0.00 | 54 | 1013.0 |
| 20260505013046 | 68 | 138 | 2.0 | 3.0 | 0.00 | 0.00 | 0.00 | 60 | 1012.9 |
| 20260505011544 | 68 | 153 | 1.0 | 2.0 | 0.00 | 0.00 | 0.00 | 56 | 1012.9 |
| 20260505010108 | 69 | 153 | 2.0 | 4.0 | 0.00 | 0.00 | 0.00 | 58 | 1012.7 |
| 20260505004541 | 71 | 212 | 3.0 | 5.0 | 0.00 | 0.00 | 0.00 | 50 | 1012.7 |
| 20260505003054 | 70 | 181 | 2.0 | 4.0 | 0.00 | 0.00 | 0.00 | 49 | 1012.4 |
| 20260505001550 | 72 | 211 | 2.0 | 6.0 | 0.00 | 0.00 | 0.00 | 48 | 1012.3 |
| 20260505000049 | 73 | 188 | 3.0 | 5.0 | 0.00 | 0.00 | 0.00 | 42 | 1012.3 |
| 20260504234554 | 74 | 195 | 4.0 | 9.0 | 0.00 | 0.00 | 0.00 | 40 | 1012.2 |
| 20260504233103 | 75 | 201 | 6.0 | 10.0 | 0.00 | 0.00 | 0.00 | 40 | 1012.0 |
| 20260504231549 | 76 | 213 | 6.0 | 12.0 | 0.00 | 0.00 | 0.00 | 37 | 1011.8 |
| 20260504230056 | 76 | 226 | 6.0 | 15.0 | 0.00 | 0.00 | 0.00 | 38 | 1011.6 |
| 20260504224552 | 76 | 201 | 6.0 | 12.0 | 0.00 | 0.00 | 0.00 | 37 | 1011.7 |
| 20260504223051 | 77 | 216 | 7.0 | 12.0 | 0.00 | 0.00 | 0.00 | 39 | 1011.8 |
| 20260504221550 | 76 | 208 | 9.0 | 18.0 | 0.00 | 0.00 | 0.00 | 36 | 1011.9 |
| 20260504220054 | 77 | 187 | 9.0 | 17.0 | 0.00 | 0.00 | 0.00 | 36 | 1011.8 |
| 20260504214555 | 76 | 198 | 8.0 | 15.0 | 0.00 | 0.00 | 0.00 | 37 | 1011.8 |
| 20260504213047 | 76 | 213 | 6.0 | 11.0 | 0.00 | 0.00 | 0.00 | 38 | 1012.0 |
| 20260504211547 | 76 | 236 | 6.0 | 17.0 | 0.00 | 0.00 | 0.00 | 38 | 1012.0 |
| 20260504210104 | 75 | 157 | 12.0 | 17.0 | 0.00 | 0.00 | 0.00 | 44 | 1012.1 |
| 20260504204556 | 75 | 203 | 9.0 | 15.0 | 0.00 | 0.00 | 0.00 | 37 | 1012.0 |
| 20260504203100 | 75 | 213 | 5.0 | 10.0 | 0.00 | 0.00 | 0.00 | 35 | 1012.1 |
| 20260504201551 | 74 | 200 | 5.0 | 12.0 | 0.00 | 0.00 | 0.00 | 37 | 1012.3 |
| 20260504200046 | 74 | 233 | 6.0 | 16.0 | 0.00 | 0.00 | 0.00 | 33 | 1012.4 |
| 20260504194546 | 74 | 240 | 7.0 | 16.0 | 0.00 | 0.00 | 0.00 | 31 | 1012.5 |
| 20260504193049 | 74 | 227 | 8.0 | 13.0 | 0.00 | 0.00 | 0.00 | 39 | 1012.6 |
| 20260504191545 | 73 | 237 | 3.0 | 10.0 | 0.00 | 0.00 | 0.00 | 43 | 1012.8 |
| 20260504190106 | 73 | 299 | 5.0 | 12.0 | 0.00 | 0.00 | 0.00 | 38 | 1013.4 |
| 20260504184553 | 72 | 166 | 7.0 | 11.0 | 0.00 | 0.00 | 0.00 | 37 | 1013.5 |
| 20260504183047 | 72 | 219 | 7.0 | 16.0 | 0.00 | 0.00 | 0.00 | 40 | 1013.8 |
| 20260504181551 | 72 | 200 | 9.0 | 15.0 | 0.00 | 0.00 | 0.00 | 35 | 1013.7 |
| 20260504180047 | 72 | 220 | 8.0 | 15.0 | 0.00 | 0.00 | 0.00 | 35 | 1014.2 |
| 20260504174545 | 71 | 234 | 7.0 | 14.0 | 0.00 | 0.00 | 0.00 | 35 | 1014.2 |
| 20260504173047 | 71 | 288 | 7.0 | 14.0 | 0.00 | 0.00 | 0.00 | 34 | 1014.3 |
| 20260504171549 | 70 | 236 | 9.0 | 15.0 | 0.00 | 0.00 | 0.00 | 34 | 1014.6 |
| 20260504100103 | 54 | 203 | 4.0 | 6.0 | 0.00 | 0.00 | 0.00 | 74 | 1016.8 |
| 20260504081554 | 54 | 150 | 4.0 | 6.0 | 0.00 | 0.00 | 0.00 | 77 | 1017.2 |